Weather Roundup
Issued by NWS Springfield, MO

Home | Current Version | Previous Version | Text Only | Print | Product List | Glossary On
Versions: 1 2 3 4 5 6 7 8 9 10 11 12 13 14 15 16 17 18 19 20 21 22 23 24 25 26 27 28 29 30 31 32 33 34 35 36 37 38 39 40 41 42 43 44 45 46 47 48 49 50
000
NZUS99 KSGF 291857
HRRSGF

HOURLY WEATHER
NATIONAL WEATHER SERVICE SPRINGFIELD MO
200 PM CDT SAT AUG 29 2015

......SGF CWA......

CITY           SKY/WX    TMP DP  RH WIND       PRES   REMARKS
SPRINGFIELD    CLOUDY    79  66  64 S5        30.01F
JOPLIN         MOSUNNY   81  68  64 S9        30.00F
WEST PLAINS    CLOUDY    71  66  84 S5        30.07F
ROLLA          LGT RAIN  81  67  62 S9        30.01F
BRANSON        MOSUNNY   82  68  61 SE9       30.03F

......SURROUNDING SGF CWA......

CITY           SKY/WX    TMP DP  RH WIND       PRES   REMARKS
CHANUTE        CLOUDY    78  64  61 CALM      30.01F
PARSONS        PTSUNNY   80  67  64 CALM      30.01F
COFFEYVILLE    CLOUDY    80  67  64 N6        29.99F
EMPORIA        CLOUDY    70  62  76 NW7       30.05F

......KANSAS AND MISSOURI......

CITY           SKY/WX    TMP DP  RH WIND       PRES   REMARKS
KANSAS CTY INT CLOUDY    73  67  81 NW5       30.03F
SEDALIA        CLOUDY    80  66  62 W6        30.02S
ST JOSEPH      CLOUDY    73  66  78 N7        30.04S
ST LOUIS       CLOUDY    83  66  56 SW9       30.03S
WICHITA        CLOUDY    72  61  68 NE10      30.06F
TOPEKA         CLOUDY    72  66  81 N6        30.04F
OLATHE         CLOUDY    74  66  76 NW7       30.02S

......TENNESSEE......

CITY           SKY/WX    TMP DP  RH WIND       PRES   REMARKS
MEMPHIS        NOT AVBL
NASHVILLE      PTSUNNY   87  68  52 SE12      30.09F HX  90

......ARKANSAS.......

CITY           SKY/WX    TMP DP  RH WIND       PRES   REMARKS
FAYETTEVILLE   SUNNY     86  69  56 SW9       30.01F HX  90
FT SMITH       SUNNY     87  67  51 SE7       29.99F HX  90
LITTLE ROCK    CLOUDY    88  62  41 S9        30.03F

......OKLAHOMA.......

CITY           SKY/WX    TMP DP  RH WIND       PRES   REMARKS
TULSA          PTSUNNY   82  71  69 N3        29.97F
PONCA CITY     PTSUNNY   82  63  52 N7        30.00F
MCALESTER      PTSUNNY   87  69  54 S8        29.99F HX  91
OKLAHOMA CITY  MOSUNNY   90  67  46 N9        30.00F HX  93

......IOWA............

CITY           SKY/WX    TMP DP  RH WIND       PRES   REMARKS
DES MOINES     NOT AVBL
QUAD CITIES    CLOUDY    74  67  78 CALM      29.99F

......ILLINOIS........

CITY           SKY/WX    TMP DP  RH WIND       PRES   REMARKS
QUINCY         CLOUDY    80  67  64 W6        29.99F
CHICAGO        CLOUDY    69  66  90 SW6       30.01F FOG




USA.gov is the U.S. government's official web portal to all federal, state and local government web resources and services.